Year,Month,Day,Hour,Minute,Value (Times are PST for temperature in C)
2007,07,11,00,00,24.80
2007,07,11,00,01,24.70
2007,07,11,00,02,24.60
2007,07,11,00,03,24.50
2007,07,11,00,04,24.50
2007,07,11,00,05,24.40
2007,07,11,00,06,24.40
2007,07,11,00,07,24.40
2007,07,11,00,08,24.40
2007,07,11,00,09,24.40
2007,07,11,00,10,24.40
2007,07,11,00,11,24.40
2007,07,11,00,12,24.40
2007,07,11,00,13,24.40
2007,07,11,00,14,24.40
2007,07,11,00,15,24.40
2007,07,11,00,16,24.40
2007,07,11,00,17,24.40
2007,07,11,00,18,24.40
2007,07,11,00,19,24.30
2007,07,11,00,20,24.10
2007,07,11,00,21,24.10
2007,07,11,00,22,24.00
2007,07,11,00,23,23.90
2007,07,11,00,24,23.80
2007,07,11,00,25,23.80
2007,07,11,00,26,23.70
2007,07,11,00,27,23.80
2007,07,11,00,28,23.80
2007,07,11,00,29,23.90
2007,07,11,00,30,23.90
2007,07,11,00,31,23.90
2007,07,11,00,32,23.90
2007,07,11,00,33,23.90
2007,07,11,00,34,23.90
2007,07,11,00,35,23.90
2007,07,11,00,36,23.80
2007,07,11,00,37,23.80
2007,07,11,00,38,23.80
2007,07,11,00,39,23.70
2007,07,11,00,40,23.70
2007,07,11,00,41,23.70
2007,07,11,00,42,23.70
2007,07,11,00,43,23.70
2007,07,11,00,44,23.70
2007,07,11,00,45,23.70
2007,07,11,00,46,23.70
2007,07,11,00,47,23.80
2007,07,11,00,48,23.80
2007,07,11,00,49,23.80
2007,07,11,00,50,23.90
2007,07,11,00,51,23.90
2007,07,11,00,52,23.90
2007,07,11,00,53,23.90
2007,07,11,00,54,23.90
2007,07,11,00,55,23.90
2007,07,11,00,56,24.00
2007,07,11,00,57,24.10
2007,07,11,00,58,24.10
2007,07,11,00,59,24.00
2007,07,11,01,00,23.90
2007,07,11,01,01,23.80
2007,07,11,01,02,23.70
2007,07,11,01,03,23.70
2007,07,11,01,04,23.70
2007,07,11,01,05,23.60
2007,07,11,01,06,23.60
2007,07,11,01,07,23.50
2007,07,11,01,08,23.40
2007,07,11,01,09,23.30
2007,07,11,01,10,23.30
2007,07,11,01,11,23.30
2007,07,11,01,12,23.30
2007,07,11,01,13,23.30
2007,07,11,01,14,23.30
2007,07,11,01,15,23.30
2007,07,11,01,16,23.30
2007,07,11,01,17,23.30
2007,07,11,01,18,23.30
2007,07,11,01,19,23.30
2007,07,11,01,20,23.30
2007,07,11,01,21,23.30
2007,07,11,01,22,23.40
2007,07,11,01,23,23.40
2007,07,11,01,24,23.40
2007,07,11,01,25,23.40
2007,07,11,01,26,23.40
2007,07,11,01,27,23.40
2007,07,11,01,28,23.40
2007,07,11,01,29,23.40
2007,07,11,01,30,23.40
2007,07,11,01,31,23.30
2007,07,11,01,32,23.30
2007,07,11,01,33,23.30
2007,07,11,01,34,23.40
2007,07,11,01,35,23.30
2007,07,11,01,36,23.30
2007,07,11,01,37,23.30
2007,07,11,01,38,23.30
2007,07,11,01,39,23.30
2007,07,11,01,40,23.30
2007,07,11,01,41,23.30
2007,07,11,01,42,23.30
2007,07,11,01,43,23.30
2007,07,11,01,44,23.30
2007,07,11,01,45,23.30
2007,07,11,01,46,23.30
2007,07,11,01,47,23.30
2007,07,11,01,48,23.30
2007,07,11,01,49,23.30
2007,07,11,01,50,23.30
2007,07,11,01,51,23.20
2007,07,11,01,52,23.20
2007,07,11,01,53,23.10
2007,07,11,01,54,23.00
2007,07,11,01,55,22.90
2007,07,11,01,56,22.80
2007,07,11,01,57,22.80
2007,07,11,01,58,22.70
2007,07,11,01,59,22.60
2007,07,11,02,00,22.40
2007,07,11,02,01,22.30
2007,07,11,02,02,22.20
2007,07,11,02,03,22.10
2007,07,11,02,04,22.10
2007,07,11,02,05,22.10
2007,07,11,02,06,22.10
2007,07,11,02,07,22.10
2007,07,11,02,08,22.10
2007,07,11,02,09,22.20
2007,07,11,02,10,22.20
2007,07,11,02,11,22.20
2007,07,11,02,12,22.30
2007,07,11,02,13,22.30
2007,07,11,02,14,22.40
2007,07,11,02,15,22.40
2007,07,11,02,16,22.40
2007,07,11,02,17,22.40
2007,07,11,02,18,22.40
2007,07,11,02,19,22.40
2007,07,11,02,20,22.40
2007,07,11,02,21,22.40
2007,07,11,02,22,22.40
2007,07,11,02,23,22.40
2007,07,11,02,24,22.40
2007,07,11,02,25,22.50
2007,07,11,02,26,22.50
2007,07,11,02,27,22.50
2007,07,11,02,28,22.50
2007,07,11,02,29,22.50
2007,07,11,02,30,22.50
2007,07,11,02,31,22.50
2007,07,11,02,32,22.50
2007,07,11,02,33,22.50
2007,07,11,02,34,22.50
2007,07,11,02,35,22.40
2007,07,11,02,36,22.40
2007,07,11,02,37,22.40
2007,07,11,02,38,22.40
2007,07,11,02,39,22.40
2007,07,11,02,40,22.40
2007,07,11,02,41,22.30
2007,07,11,02,42,22.30
2007,07,11,02,43,22.30
2007,07,11,02,44,22.30
2007,07,11,02,45,22.30
2007,07,11,02,46,22.30
2007,07,11,02,47,22.20
2007,07,11,02,48,22.20
2007,07,11,02,49,22.20
2007,07,11,02,50,22.10
2007,07,11,02,51,22.10
2007,07,11,02,52,22.00
2007,07,11,02,53,21.90
2007,07,11,02,54,21.90
2007,07,11,02,55,21.80
2007,07,11,02,56,21.80
2007,07,11,02,57,21.70
2007,07,11,02,58,21.70
2007,07,11,02,59,21.60
2007,07,11,03,00,21.60
2007,07,11,03,01,21.60
2007,07,11,03,02,21.60
2007,07,11,03,03,21.50
2007,07,11,03,04,21.40
2007,07,11,03,05,21.40
2007,07,11,03,06,21.40
2007,07,11,03,07,21.40
2007,07,11,03,08,21.40
2007,07,11,03,09,21.40
2007,07,11,03,10,21.40
2007,07,11,03,11,21.40
2007,07,11,03,12,21.40
2007,07,11,03,13,21.40
2007,07,11,03,14,21.60
2007,07,11,03,15,21.40
2007,07,11,03,16,21.40
2007,07,11,03,17,21.40
2007,07,11,03,18,21.40
2007,07,11,03,19,21.30
2007,07,11,03,20,21.30
2007,07,11,03,21,21.30
2007,07,11,03,22,21.30
2007,07,11,03,23,21.30
2007,07,11,03,24,21.20
2007,07,11,03,25,21.20
2007,07,11,03,26,21.10
2007,07,11,03,27,21.10
2007,07,11,03,28,21.00
2007,07,11,03,29,21.00
2007,07,11,03,30,21.00
2007,07,11,03,31,20.90
2007,07,11,03,32,20.90
2007,07,11,03,33,20.90
2007,07,11,03,34,20.80
2007,07,11,03,35,20.80
2007,07,11,03,36,20.80
2007,07,11,03,37,20.70
2007,07,11,03,38,20.70
2007,07,11,03,39,20.70
2007,07,11,03,40,20.70
2007,07,11,03,41,20.70
2007,07,11,03,42,20.70
2007,07,11,03,43,20.60
2007,07,11,03,44,20.60
2007,07,11,03,45,20.60
2007,07,11,03,46,20.60
2007,07,11,03,47,20.60
2007,07,11,03,48,20.60
2007,07,11,03,49,20.60
2007,07,11,03,50,20.60
2007,07,11,03,51,20.50
2007,07,11,03,52,20.50
2007,07,11,03,53,20.50
2007,07,11,03,54,20.40
2007,07,11,03,55,20.40
2007,07,11,03,56,20.30
2007,07,11,03,57,20.20
2007,07,11,03,58,20.20
2007,07,11,03,59,20.20
2007,07,11,04,00,20.20
2007,07,11,04,01,20.10
2007,07,11,04,02,20.10
2007,07,11,04,03,19.90
2007,07,11,04,04,19.90
2007,07,11,04,05,19.90
2007,07,11,04,06,19.90
2007,07,11,04,07,19.90
2007,07,11,04,08,19.80
2007,07,11,04,09,19.80
2007,07,11,04,10,19.80
2007,07,11,04,11,19.70
2007,07,11,04,12,19.70
2007,07,11,04,13,19.70
2007,07,11,04,14,19.60
2007,07,11,04,15,19.60
2007,07,11,04,16,19.50
2007,07,11,04,17,19.50
2007,07,11,04,18,19.50
2007,07,11,04,19,19.40
2007,07,11,04,20,19.40
2007,07,11,04,21,19.40
2007,07,11,04,22,19.40
2007,07,11,04,23,19.30
2007,07,11,04,24,19.30
2007,07,11,04,25,19.30
2007,07,11,04,26,19.30
2007,07,11,04,27,19.30
2007,07,11,04,28,19.30
2007,07,11,04,29,19.20
2007,07,11,04,30,19.20
2007,07,11,04,31,19.20
2007,07,11,04,32,19.20
2007,07,11,04,33,19.20
2007,07,11,04,34,19.20
2007,07,11,04,35,19.20
2007,07,11,04,36,19.20
2007,07,11,04,37,19.20
2007,07,11,04,38,19.20
2007,07,11,04,39,19.20
2007,07,11,04,40,19.20
2007,07,11,04,41,19.20
2007,07,11,04,42,19.20
2007,07,11,04,43,19.20
2007,07,11,04,44,19.20
2007,07,11,04,45,19.20
2007,07,11,04,46,19.20
2007,07,11,04,47,19.20
2007,07,11,04,48,19.20
2007,07,11,04,49,19.20
2007,07,11,04,50,19.20
2007,07,11,04,51,19.20
2007,07,11,04,52,19.30
2007,07,11,04,53,19.30
2007,07,11,04,54,19.30
2007,07,11,04,55,19.40
2007,07,11,04,56,19.40
2007,07,11,04,57,19.50
2007,07,11,04,58,19.50
2007,07,11,04,59,19.50
2007,07,11,05,00,19.60
2007,07,11,05,01,19.60
2007,07,11,05,02,19.60
2007,07,11,05,03,19.60
2007,07,11,05,04,19.60
2007,07,11,05,05,19.60
2007,07,11,05,06,19.60
2007,07,11,05,07,19.60
2007,07,11,05,08,19.60
2007,07,11,05,09,19.60
2007,07,11,05,10,19.60
2007,07,11,05,11,19.50
2007,07,11,05,12,19.50
2007,07,11,05,13,19.50
2007,07,11,05,14,19.50
2007,07,11,05,15,19.50
2007,07,11,05,16,19.50
2007,07,11,05,17,19.40
2007,07,11,05,18,19.40
2007,07,11,05,19,19.40
2007,07,11,05,20,19.30
2007,07,11,05,21,19.30
2007,07,11,05,22,19.30
2007,07,11,05,23,19.30
2007,07,11,05,24,19.20
2007,07,11,05,25,19.20
2007,07,11,05,26,19.20
2007,07,11,05,27,19.10
2007,07,11,05,28,19.10
2007,07,11,05,29,19.10
2007,07,11,05,30,19.10
2007,07,11,05,31,19.10
2007,07,11,05,32,19.10
2007,07,11,05,33,19.10
2007,07,11,05,34,19.10
2007,07,11,05,35,19.10
2007,07,11,05,36,19.10
2007,07,11,05,37,19.20
2007,07,11,05,38,19.20
2007,07,11,05,39,19.20
2007,07,11,05,40,19.20
2007,07,11,05,41,19.20
2007,07,11,05,42,19.30
2007,07,11,05,43,19.40
2007,07,11,05,44,19.50
2007,07,11,05,45,19.60
2007,07,11,05,46,19.70
2007,07,11,05,47,19.90
2007,07,11,05,48,20.00
2007,07,11,05,49,20.10
2007,07,11,05,50,20.30
2007,07,11,05,51,20.40
2007,07,11,05,52,20.40
2007,07,11,05,53,20.40
2007,07,11,05,54,20.30
2007,07,11,05,55,20.30
2007,07,11,05,56,20.20
2007,07,11,05,57,20.10
2007,07,11,05,58,19.90
2007,07,11,05,59,19.90
2007,07,11,06,00,19.80
2007,07,11,06,01,19.80
2007,07,11,06,02,19.80
2007,07,11,06,03,19.70
2007,07,11,06,04,19.70
2007,07,11,06,05,19.70
2007,07,11,06,06,19.70
2007,07,11,06,07,19.70
2007,07,11,06,08,19.70
2007,07,11,06,09,19.70
2007,07,11,06,10,19.80
2007,07,11,06,11,19.80
2007,07,11,06,12,19.80
2007,07,11,06,13,19.80
2007,07,11,06,14,19.90
2007,07,11,06,15,19.90
2007,07,11,06,16,19.90
2007,07,11,06,17,19.90
2007,07,11,06,18,19.90
2007,07,11,06,19,19.80
2007,07,11,06,20,19.70
2007,07,11,06,21,19.60
2007,07,11,06,22,19.60
2007,07,11,06,23,19.60
2007,07,11,06,24,19.50
2007,07,11,06,25,19.50
2007,07,11,06,26,19.60
2007,07,11,06,27,19.60
2007,07,11,06,28,19.50
2007,07,11,06,29,19.50
2007,07,11,06,30,19.50
2007,07,11,06,31,19.50
2007,07,11,06,32,19.50
2007,07,11,06,33,19.50
2007,07,11,06,34,19.60
2007,07,11,06,35,19.60
2007,07,11,06,36,19.60
2007,07,11,06,37,19.50
2007,07,11,06,38,19.50
2007,07,11,06,39,19.40
2007,07,11,06,40,19.40
2007,07,11,06,41,19.40
2007,07,11,06,42,19.40
2007,07,11,06,43,19.40
2007,07,11,06,44,19.40
2007,07,11,06,45,19.40
2007,07,11,06,46,19.50
2007,07,11,06,47,19.50
2007,07,11,06,48,19.50
2007,07,11,06,49,19.50
2007,07,11,06,50,19.60
2007,07,11,06,51,19.60
2007,07,11,06,52,19.70
2007,07,11,06,53,19.70
2007,07,11,06,54,19.80
2007,07,11,06,55,19.80
2007,07,11,06,56,19.90
2007,07,11,06,57,19.90
2007,07,11,06,58,19.90
2007,07,11,06,59,19.90
2007,07,11,07,00,19.90
2007,07,11,07,01,19.90
2007,07,11,07,02,19.90
2007,07,11,07,03,20.00
2007,07,11,07,04,20.10
2007,07,11,07,05,20.10
2007,07,11,07,06,20.20
2007,07,11,07,07,20.20
2007,07,11,07,08,20.20
2007,07,11,07,09,20.20
2007,07,11,07,10,20.20
2007,07,11,07,11,20.30
2007,07,11,07,12,20.30
2007,07,11,07,13,20.40
2007,07,11,07,14,20.40
2007,07,11,07,15,20.40
2007,07,11,07,16,20.40
2007,07,11,07,17,20.50
2007,07,11,07,18,20.50
2007,07,11,07,19,20.50
2007,07,11,07,20,20.50
2007,07,11,07,21,20.60
2007,07,11,07,22,20.60
2007,07,11,07,23,20.70
2007,07,11,07,24,20.80
2007,07,11,07,25,20.80
2007,07,11,07,26,20.90
2007,07,11,07,27,21.00
2007,07,11,07,28,21.10
2007,07,11,07,29,21.20
2007,07,11,07,30,21.30
2007,07,11,07,31,21.30
2007,07,11,07,32,21.40
2007,07,11,07,33,21.50
2007,07,11,07,34,21.60
2007,07,11,07,35,21.60
2007,07,11,07,36,21.60
2007,07,11,07,37,21.70
2007,07,11,07,38,21.80
2007,07,11,07,39,21.80
2007,07,11,07,40,21.90
2007,07,11,07,41,22.00
2007,07,11,07,42,22.00
2007,07,11,07,43,22.00
2007,07,11,07,44,22.00
2007,07,11,07,45,22.00
2007,07,11,07,46,22.10
2007,07,11,07,47,22.00
2007,07,11,07,48,22.00
2007,07,11,07,49,21.90
2007,07,11,07,50,21.70
2007,07,11,07,51,21.60
2007,07,11,07,52,21.50
2007,07,11,07,53,21.30
2007,07,11,07,54,21.20
2007,07,11,07,55,21.20
2007,07,11,07,56,21.10
2007,07,11,07,57,21.10
2007,07,11,07,58,21.10
2007,07,11,07,59,21.10
2007,07,11,08,00,21.00
2007,07,11,08,01,21.00
2007,07,11,08,02,21.00
2007,07,11,08,03,21.00
2007,07,11,08,04,21.10
2007,07,11,08,05,21.10
2007,07,11,08,06,21.10
2007,07,11,08,07,21.10
2007,07,11,08,08,21.00
2007,07,11,08,09,21.00
2007,07,11,08,10,20.90
2007,07,11,08,11,20.80
2007,07,11,08,12,20.80
2007,07,11,08,13,20.70
2007,07,11,08,14,20.60
2007,07,11,08,15,20.50
2007,07,11,08,16,20.50
2007,07,11,08,17,20.30
2007,07,11,08,18,20.20
2007,07,11,08,19,20.00
2007,07,11,08,20,19.70
2007,07,11,08,21,19.50
2007,07,11,08,22,19.50
2007,07,11,08,23,19.20
2007,07,11,08,24,19.10
2007,07,11,08,25,19.10
2007,07,11,08,26,19.10
2007,07,11,08,27,19.10
2007,07,11,08,28,19.10
2007,07,11,08,29,19.20
2007,07,11,08,30,19.20
2007,07,11,08,31,19.40
2007,07,11,08,32,19.40
2007,07,11,08,33,19.50
2007,07,11,08,34,19.60
2007,07,11,08,35,19.70
2007,07,11,08,36,19.80
2007,07,11,08,37,19.90
2007,07,11,08,38,20.10
2007,07,11,08,39,20.20
2007,07,11,08,40,20.40
2007,07,11,08,41,20.60
2007,07,11,08,42,20.70
2007,07,11,08,43,20.90
2007,07,11,08,44,21.00
2007,07,11,08,45,21.10
2007,07,11,08,46,21.20
2007,07,11,08,47,21.10
2007,07,11,08,48,21.00
2007,07,11,08,49,20.90
2007,07,11,08,50,20.90
2007,07,11,08,51,20.80
2007,07,11,08,52,20.80
2007,07,11,08,53,20.70
2007,07,11,08,54,20.60
2007,07,11,08,55,20.40
2007,07,11,08,56,20.20
2007,07,11,08,57,20.00
2007,07,11,08,58,19.90
2007,07,11,08,59,19.80
2007,07,11,09,00,19.80
2007,07,11,09,01,19.70
2007,07,11,09,02,19.70
2007,07,11,09,03,19.70
2007,07,11,09,04,19.70
2007,07,11,09,05,19.70
2007,07,11,09,06,19.70
2007,07,11,09,07,19.70
2007,07,11,09,08,19.70
2007,07,11,09,09,19.80
2007,07,11,09,10,19.80
2007,07,11,09,11,19.90
2007,07,11,09,12,19.90
2007,07,11,09,13,20.00
2007,07,11,09,14,20.10
2007,07,11,09,15,20.20
2007,07,11,09,16,20.30
2007,07,11,09,17,20.50
2007,07,11,09,18,20.60
2007,07,11,09,19,20.70
2007,07,11,09,20,20.80
2007,07,11,09,21,20.90
2007,07,11,09,22,21.00
2007,07,11,09,23,21.10
2007,07,11,09,24,21.20
2007,07,11,09,25,21.30
2007,07,11,09,26,21.40
2007,07,11,09,27,21.60
2007,07,11,09,28,21.70
2007,07,11,09,29,22.00
2007,07,11,09,30,22.00
2007,07,11,09,31,22.40
2007,07,11,09,32,22.60
2007,07,11,09,33,22.80
2007,07,11,09,34,22.90
2007,07,11,09,35,23.10
2007,07,11,09,36,23.20
2007,07,11,09,37,23.30
2007,07,11,09,38,23.40
2007,07,11,09,39,23.60
2007,07,11,09,40,23.50
2007,07,11,09,41,23.30
2007,07,11,09,42,23.00
2007,07,11,09,43,22.80
2007,07,11,09,44,22.40
2007,07,11,09,45,21.90
2007,07,11,09,46,21.60
2007,07,11,09,47,21.30
2007,07,11,09,48,21.20
2007,07,11,09,49,21.10
2007,07,11,09,50,21.10
2007,07,11,09,51,21.10
2007,07,11,09,52,21.10
2007,07,11,09,53,21.10
2007,07,11,09,54,21.20
2007,07,11,09,55,21.30
2007,07,11,09,56,21.30
2007,07,11,09,57,21.50
2007,07,11,09,58,21.60
2007,07,11,09,59,21.80
2007,07,11,10,00,22.00
2007,07,11,10,01,22.20
2007,07,11,10,02,22.40
2007,07,11,10,03,22.60
2007,07,11,10,04,22.80
2007,07,11,10,05,23.10
2007,07,11,10,06,23.40
2007,07,11,10,07,23.70
2007,07,11,10,08,23.70
2007,07,11,10,09,23.70
2007,07,11,10,10,23.70
2007,07,11,10,11,23.70
2007,07,11,10,12,23.60
2007,07,11,10,13,23.50
2007,07,11,10,14,23.20
2007,07,11,10,15,22.90
2007,07,11,10,16,22.60
2007,07,11,10,17,22.50
2007,07,11,10,18,22.30
2007,07,11,10,19,22.00
2007,07,11,10,20,21.80
2007,07,11,10,21,21.50
2007,07,11,10,22,21.20
2007,07,11,10,23,21.10
2007,07,11,10,24,21.10
2007,07,11,10,25,21.10
2007,07,11,10,26,21.20
2007,07,11,10,27,21.30
2007,07,11,10,28,21.40
2007,07,11,10,29,21.50
2007,07,11,10,30,21.70
2007,07,11,10,31,21.90
2007,07,11,10,32,22.00
2007,07,11,10,33,22.10
2007,07,11,10,34,22.20
2007,07,11,10,35,22.10
2007,07,11,10,36,22.20
2007,07,11,10,37,22.20
2007,07,11,10,38,22.20
2007,07,11,10,39,22.10
2007,07,11,10,40,22.10
2007,07,11,10,41,22.00
2007,07,11,10,42,21.80
2007,07,11,10,43,21.70
2007,07,11,10,44,21.60
2007,07,11,10,45,21.60
2007,07,11,10,46,21.60
2007,07,11,10,47,21.60
2007,07,11,10,48,21.40
2007,07,11,10,49,21.60
2007,07,11,10,50,21.60
2007,07,11,10,51,21.60
2007,07,11,10,52,21.70
2007,07,11,10,53,21.60
2007,07,11,10,54,21.60
2007,07,11,10,55,21.60
2007,07,11,10,56,21.60
2007,07,11,10,57,21.40
2007,07,11,10,58,21.30
2007,07,11,10,59,21.30
2007,07,11,11,00,21.30
2007,07,11,11,01,21.20
2007,07,11,11,02,21.10
2007,07,11,11,03,21.20
2007,07,11,11,04,21.20
2007,07,11,11,05,21.30
2007,07,11,11,06,21.20
2007,07,11,11,07,21.10
2007,07,11,11,08,21.10
2007,07,11,11,09,21.20
2007,07,11,11,10,21.40
2007,07,11,11,11,21.60
2007,07,11,11,12,21.60
2007,07,11,11,13,21.80
2007,07,11,11,14,22.00
2007,07,11,11,15,22.00
2007,07,11,11,16,22.20
2007,07,11,11,17,22.40
2007,07,11,11,18,22.40
2007,07,11,11,19,22.20
2007,07,11,11,20,22.00
2007,07,11,11,21,21.90
2007,07,11,11,22,21.90
2007,07,11,11,23,21.90
2007,07,11,11,24,22.00
2007,07,11,11,25,22.10
2007,07,11,11,26,22.20
2007,07,11,11,27,22.30
2007,07,11,11,28,22.60
2007,07,11,11,29,22.70
2007,07,11,11,30,22.90
2007,07,11,11,31,23.10
2007,07,11,11,32,23.30
2007,07,11,11,33,23.40
2007,07,11,11,34,23.50
2007,07,11,11,35,23.60
2007,07,11,11,36,23.60
2007,07,11,11,37,23.70
2007,07,11,11,38,23.80
2007,07,11,11,39,23.90
2007,07,11,11,40,24.10
2007,07,11,11,41,24.30
2007,07,11,11,42,24.50
2007,07,11,11,43,24.60
2007,07,11,11,44,24.70
2007,07,11,11,45,24.70
2007,07,11,11,46,24.60
2007,07,11,11,47,24.60
2007,07,11,11,48,24.60
2007,07,11,11,49,24.60
2007,07,11,11,50,24.50
2007,07,11,11,51,24.50
2007,07,11,11,52,24.50
2007,07,11,11,53,24.60
2007,07,11,11,54,24.80
2007,07,11,11,55,24.80
2007,07,11,11,56,24.80
2007,07,11,11,57,24.70
2007,07,11,11,58,24.70
2007,07,11,11,59,24.60
2007,07,11,12,00,24.60
2007,07,11,12,01,24.60
2007,07,11,12,02,24.70
2007,07,11,12,03,24.70
2007,07,11,12,04,24.70
2007,07,11,12,05,24.70
2007,07,11,12,06,24.60
2007,07,11,12,07,24.50
2007,07,11,12,08,24.40
2007,07,11,12,09,24.20
2007,07,11,12,10,24.10
2007,07,11,12,11,24.10
2007,07,11,12,12,24.10
2007,07,11,12,13,24.10
2007,07,11,12,14,24.10
2007,07,11,12,15,24.10
2007,07,11,12,16,23.90
2007,07,11,12,17,24.00
2007,07,11,12,18,24.10
2007,07,11,12,19,24.10
2007,07,11,12,20,24.10
2007,07,11,12,21,24.20
2007,07,11,12,22,24.30
2007,07,11,12,23,24.30
2007,07,11,12,24,24.40
2007,07,11,12,25,24.40
2007,07,11,12,26,24.30
2007,07,11,12,27,24.30
2007,07,11,12,28,24.30
2007,07,11,12,29,24.00
2007,07,11,12,30,23.90
2007,07,11,12,31,24.00
2007,07,11,12,32,24.10
2007,07,11,12,33,24.20
2007,07,11,12,34,24.30
2007,07,11,12,35,24.40
2007,07,11,12,36,24.50
2007,07,11,12,37,24.70
2007,07,11,12,38,24.80
2007,07,11,12,39,24.90
2007,07,11,12,40,25.00
2007,07,11,12,41,25.10
2007,07,11,12,42,25.10
2007,07,11,12,43,25.10
2007,07,11,12,44,25.10
2007,07,11,12,45,25.00
2007,07,11,12,46,24.90
2007,07,11,12,47,25.00
2007,07,11,12,48,25.00
2007,07,11,12,49,25.10
2007,07,11,12,50,25.10
2007,07,11,12,51,25.00
2007,07,11,12,52,25.00
2007,07,11,12,53,25.10
2007,07,11,12,54,25.10
2007,07,11,12,55,25.00
2007,07,11,12,56,24.90
2007,07,11,12,57,24.90
2007,07,11,12,58,24.90
2007,07,11,12,59,24.90
2007,07,11,13,00,25.00
2007,07,11,13,01,25.10
2007,07,11,13,02,25.20
2007,07,11,13,03,25.40
2007,07,11,13,04,25.60
2007,07,11,13,05,25.80
2007,07,11,13,06,25.90
2007,07,11,13,07,26.10
2007,07,11,13,08,26.10
2007,07,11,13,09,26.20
2007,07,11,13,10,26.00
2007,07,11,13,11,25.90
2007,07,11,13,12,25.90
2007,07,11,13,13,26.10
2007,07,11,13,14,26.20
2007,07,11,13,15,26.30
2007,07,11,13,16,26.30
2007,07,11,13,17,26.40
2007,07,11,13,18,26.40
2007,07,11,13,19,26.40
2007,07,11,13,20,26.40
2007,07,11,13,21,26.50
2007,07,11,13,22,26.60
2007,07,11,13,23,26.60
2007,07,11,13,24,26.60
2007,07,11,13,25,26.40
2007,07,11,13,26,26.40
2007,07,11,13,27,26.40
2007,07,11,13,28,26.20
2007,07,11,13,29,26.10
2007,07,11,13,30,26.00
2007,07,11,13,31,26.00
2007,07,11,13,32,26.00
2007,07,11,13,33,26.00
2007,07,11,13,34,26.20
2007,07,11,13,35,26.20
2007,07,11,13,36,26.20
2007,07,11,13,37,26.40
2007,07,11,13,38,26.50
2007,07,11,13,39,26.70
2007,07,11,13,40,26.90
2007,07,11,13,41,27.20
2007,07,11,13,42,27.40
2007,07,11,13,43,27.60
2007,07,11,13,44,27.80
2007,07,11,13,45,27.80
2007,07,11,13,46,27.60
2007,07,11,13,47,27.40
2007,07,11,13,48,27.20
2007,07,11,13,49,26.80
2007,07,11,13,50,26.50
2007,07,11,13,51,26.30
2007,07,11,13,52,26.30
2007,07,11,13,53,26.30
2007,07,11,13,54,26.20
2007,07,11,13,55,25.80
2007,07,11,13,56,25.60
2007,07,11,13,57,25.40
2007,07,11,13,58,25.30
2007,07,11,13,59,25.40
2007,07,11,14,00,25.30
2007,07,11,14,01,25.30
2007,07,11,14,02,25.30
2007,07,11,14,03,25.40
2007,07,11,14,04,25.40
2007,07,11,14,05,25.50
2007,07,11,14,06,25.50
2007,07,11,14,07,25.50
2007,07,11,14,08,25.50
2007,07,11,14,09,25.60
2007,07,11,14,10,25.50
2007,07,11,14,11,25.50
2007,07,11,14,12,25.60
2007,07,11,14,13,25.70
2007,07,11,14,14,25.70
2007,07,11,14,15,25.40
2007,07,11,14,16,25.40
2007,07,11,14,17,25.40
2007,07,11,14,18,25.40
2007,07,11,14,19,25.60
2007,07,11,14,20,25.60
2007,07,11,14,21,25.60
2007,07,11,14,22,25.60
2007,07,11,14,23,25.50
2007,07,11,14,24,25.50
2007,07,11,14,25,25.50
2007,07,11,14,26,25.40
2007,07,11,14,27,25.40
2007,07,11,14,28,25.40
2007,07,11,14,29,25.40
2007,07,11,14,30,25.50
2007,07,11,14,31,25.50
2007,07,11,14,32,25.50
2007,07,11,14,33,25.60
2007,07,11,14,34,25.50
2007,07,11,14,35,25.50
2007,07,11,14,36,25.60
2007,07,11,14,37,25.60
2007,07,11,14,38,25.70
2007,07,11,14,39,25.70
2007,07,11,14,40,25.90
2007,07,11,14,41,26.00
2007,07,11,14,42,26.10
2007,07,11,14,43,26.30
2007,07,11,14,44,26.40
2007,07,11,14,45,26.60
2007,07,11,14,46,26.50
2007,07,11,14,47,26.40
2007,07,11,14,48,26.50
2007,07,11,14,49,26.60
2007,07,11,14,50,26.60
2007,07,11,14,51,26.50
2007,07,11,14,52,26.40
2007,07,11,14,53,26.40
2007,07,11,14,54,26.40
2007,07,11,14,55,26.30
2007,07,11,14,56,26.40
2007,07,11,14,57,26.60
2007,07,11,14,58,26.60
2007,07,11,14,59,26.80
2007,07,11,15,00,26.90
2007,07,11,15,01,27.00
2007,07,11,15,02,27.10
2007,07,11,15,03,27.10
2007,07,11,15,04,27.10
2007,07,11,15,05,27.10
2007,07,11,15,06,27.20
2007,07,11,15,07,27.30
2007,07,11,15,08,27.40
2007,07,11,15,09,27.50
2007,07,11,15,10,27.80
2007,07,11,15,11,28.00
2007,07,11,15,12,28.10
2007,07,11,15,13,28.10
2007,07,11,15,14,28.10
2007,07,11,15,15,28.20
2007,07,11,15,16,28.20
2007,07,11,15,17,28.30
2007,07,11,15,18,28.40
2007,07,11,15,19,28.50
2007,07,11,15,20,28.70
2007,07,11,15,21,28.90
2007,07,11,15,22,29.00
2007,07,11,15,23,29.20
2007,07,11,15,24,29.40
2007,07,11,15,25,29.60
2007,07,11,15,26,29.80
2007,07,11,15,27,29.90
2007,07,11,15,28,30.00
2007,07,11,15,29,30.20
2007,07,11,15,30,30.40
2007,07,11,15,31,30.60
2007,07,11,15,32,30.80
2007,07,11,15,33,30.80
2007,07,11,15,34,31.20
2007,07,11,15,35,31.30
2007,07,11,15,36,31.50
2007,07,11,15,37,31.70
2007,07,11,15,38,31.90
2007,07,11,15,39,32.20
2007,07,11,15,40,32.40
2007,07,11,15,41,32.60
2007,07,11,15,42,32.80
2007,07,11,15,43,32.80
2007,07,11,15,44,32.60
2007,07,11,15,45,32.40
2007,07,11,15,46,32.20
2007,07,11,15,47,32.00
2007,07,11,15,48,31.80
2007,07,11,15,49,31.60
2007,07,11,15,50,31.40
2007,07,11,15,51,31.10
2007,07,11,15,52,30.80
2007,07,11,15,53,30.80
2007,07,11,15,54,30.70
2007,07,11,15,55,30.50
2007,07,11,15,56,30.20
2007,07,11,15,57,29.80
2007,07,11,15,58,29.50
2007,07,11,15,59,29.10
2007,07,11,16,00,28.80
2007,07,11,16,01,28.30
2007,07,11,16,02,27.90
2007,07,11,16,03,27.70
2007,07,11,16,04,27.50
2007,07,11,16,05,27.30
2007,07,11,16,06,27.30
2007,07,11,16,07,27.40
2007,07,11,16,08,27.50
2007,07,11,16,09,27.70
2007,07,11,16,10,28.00
2007,07,11,16,11,28.30
2007,07,11,16,12,28.50
2007,07,11,16,13,28.80
2007,07,11,16,14,29.10
2007,07,11,16,15,29.40
2007,07,11,16,16,29.80
2007,07,11,16,17,30.20
2007,07,11,16,18,30.50
2007,07,11,16,19,30.70
2007,07,11,16,20,30.80
2007,07,11,16,21,30.90
2007,07,11,16,22,30.70
2007,07,11,16,23,30.20
2007,07,11,16,24,29.70
2007,07,11,16,25,29.10
2007,07,11,16,26,28.80
2007,07,11,16,27,28.60
2007,07,11,16,28,28.30
2007,07,11,16,29,28.10
2007,07,11,16,30,27.90
2007,07,11,16,31,27.80
2007,07,11,16,32,27.70
2007,07,11,16,33,27.50
2007,07,11,16,34,27.30
2007,07,11,16,35,27.20
2007,07,11,16,36,27.00
2007,07,11,16,37,26.90
2007,07,11,16,38,26.70
2007,07,11,16,39,26.70
2007,07,11,16,40,26.70
2007,07,11,16,41,26.70
2007,07,11,16,42,26.80
2007,07,11,16,43,26.90
2007,07,11,16,44,27.00
2007,07,11,16,45,27.10
2007,07,11,16,46,27.20
2007,07,11,16,47,27.30
2007,07,11,16,48,27.10
2007,07,11,16,49,27.00
2007,07,11,16,50,26.90
2007,07,11,16,51,26.90
2007,07,11,16,52,27.10
2007,07,11,16,53,27.10
2007,07,11,16,54,27.20
2007,07,11,16,55,27.30
2007,07,11,16,56,27.20
2007,07,11,16,57,27.20
2007,07,11,16,58,27.10
2007,07,11,16,59,26.90
2007,07,11,17,00,26.90
2007,07,11,17,01,26.80
2007,07,11,17,02,26.70
2007,07,11,17,03,26.70
2007,07,11,17,04,26.60
2007,07,11,17,05,26.40
2007,07,11,17,06,26.20
2007,07,11,17,07,26.00
2007,07,11,17,08,25.90
2007,07,11,17,09,25.90
2007,07,11,17,10,25.80
2007,07,11,17,11,25.80
2007,07,11,17,12,25.70
2007,07,11,17,13,25.70
2007,07,11,17,14,25.90
2007,07,11,17,15,25.90
2007,07,11,17,16,26.00
2007,07,11,17,17,26.00
2007,07,11,17,18,26.00
2007,07,11,17,19,26.00